General Downing - Peoria International Airport (PIA)


Airport Diagram
Current Weather/Forecast (VFR Conditions)
METAR KPIA 171654Z 20006KT 10SM CLR 28/19 A3012 RMK AO2 SLP196 T02830194
TAF KPIA 171120Z 1712/1812 16004KT P6SM SKC FM171400 21006KT P6SM SCT250 FM180100 36005KT P6SM VCSH SCT050 BKN200

All Charts
General
Chart Name Download
AIRPORT DIAGRAM
TAKEOFF MINIMUMS
ALTERNATE MINIMUMS
HOT SPOT

Approaches
Chart Name Download
HI-ILS OR LOC RWY 31
ILS OR LOC RWY 04
ILS OR LOC RWY 13
ILS OR LOC RWY 31
ILS RWY 04 (SA CAT I - II)
RNAV (GPS) RWY 04
RNAV (GPS) RWY 13
RNAV (GPS) RWY 22
RNAV (GPS) RWY 31
VOR/DME OR TACAN RWY 31
HI-VOR OR TACAN RWY 31
VOR OR TACAN RWY 13
NDB RWY 31